Flag for Iran Weather past 2 weeks in Bandar-Abbas, Iran

Now
104 °F

Haze.


Feels Like: 125 °F
Forecast: 87 / 104 °F
Wind: 14 mph from Southwest

Location: Bandarabbass

Current Time: Jul 30, 2015 at 12:41:50 PM

Latest Report: Jul 30, 2015 at 12:00 PM


Visibility: 3 mi

Pressure: 29.47 "Hg

Humidity: 45%

Dew point: 79 °F

Location of Bandar-AbbasLocation

Historic Weather in Bandar-Abbas — Graph

°F

Bandar-Abbas temperature yesterday

Maximum temperature yesterday: 111 °F (at 6:00 PM)
Minimum temperature yesterday: 90 °F (at 6:30 AM)
Average temperature yesterday: 99 °F

Past Weeks' High & Low Weather Summary

 TemperatureHumidityPressure
High113 °F (Jul 18, 12:00 PM)89% (Jul 17, 12:00 AM)29.56 "Hg (Jul 17, 12:00 AM)
Low86 °F (Jul 22, 6:30 AM)17% (Jul 29, 6:00 PM)29.21 "Hg (Jul 17, 8:30 PM)
Average96 °F66%29.42 "Hg
* Reported Jul 15 10:30 AM — Jul 30 11:00 AM, Bandar-Abbas, Weather by CustomWeather, © 2015

Note: Actual official high and low records may vary slightly from our data, if they occured in-between our weather recording intervals... More about our weather records

Advertising

Bandar-Abbas weather history for previous 24 hours

 ConditionsComfort  
Time TempWeatherWind HumidityBarometerVisibility
11:00 AM
Thu, Jul 30
102 °FHaze.9 mph57%29.47 "Hg3 mi
10:30 AM104 °FScattered clouds.5 mph48%29.47 "Hg3 mi
10:00 AM100 °FScattered clouds.7 mph60%29.50 "Hg3 mi
9:30 AM97 °FPartly sunny.7 mph71%29.50 "Hg2 mi
9:00 AM95 °FPartly sunny.9 mph80%29.50 "Hg2 mi
8:00 AM93 °FScattered clouds.5 mph80%29.47 "Hg2 mi
7:30 AM91 °FFog.No wind84%29.47 "Hg2 mi
7:00 AM91 °FFog.No wind80%29.47 "Hg2 mi
6:30 AM90 °FFog.7 mph89%29.47 "Hg2 mi
5:30 AM91 °FFog.No wind84%29.45 "Hg2 mi
4:30 AM93 °FFog.5 mph80%29.45 "Hg2 mi
3:30 AM93 °FFog.12 mph80%29.45 "Hg1 mi
2:30 AM93 °FThunderstorms. Passing clouds.5 mph75%29.45 "Hg1 mi
2:00 AM93 °FThunderstorms. Passing clouds.5 mph75%29.45 "Hg1 mi
1:30 AM95 °FThunderstorms. Partly cloudy.5 mph71%29.45 "Hg1 mi
1:00 AM95 °FLight rain. Passing clouds.5 mph71%29.45 "Hg1 mi
12:30 AM97 °FPassing clouds.7 mph60%29.45 "Hg1 mi
12:00 AM97 °FPassing clouds.7 mph56%29.45 "Hg1 mi
11:30 PM
Wed, Jul 29
97 °FPassing clouds.7 mph60%29.45 "Hg1 mi
11:00 PM97 °FPassing clouds.12 mph60%29.45 "Hg1 mi
10:30 PM97 °FPassing clouds.5 mph60%29.45 "Hg1 mi
10:00 PM99 °FPassing clouds.9 mph57%29.42 "Hg1 mi
9:30 PM99 °FPassing clouds.12 mph57%29.39 "Hg1 mi
9:00 PM99 °FPartly sunny.5 mph57%29.39 "Hg1 mi
8:30 PM99 °FPartly sunny.12 mph60%29.36 "Hg1 mi
8:00 PM99 °FPartly sunny.14 mph64%29.33 "Hg1 mi
7:30 PM106 °FBroken clouds.7 mph26%29.30 "Hg2 mi
7:00 PM106 °FPartly sunny.9 mph32%29.30 "Hg2 mi
6:30 PM108 °FPartly sunny.18 mph25%29.30 "Hg2 mi
6:00 PM111 °FPartly sunny.9 mph17%29.30 "Hg4 mi
5:30 PM109 °FThunderstorms. Partly sunny.24 mph19%29.30 "Hg2 mi
5:00 PM104 °FExtremely hot.16 mph26%29.36 "Hg2 mi
4:30 PM104 °FThunderstorms. Scattered clouds.16 mph51%29.36 "Hg2 mi
4:00 PM104 °FScattered clouds.14 mph45%29.36 "Hg2 mi
3:30 PM106 °FScattered clouds.14 mph45%29.36 "Hg2 mi
3:00 PM104 °FHaze.14 mph48%29.36 "Hg2 mi
2:30 PM104 °FSandstorm.16 mph51%29.36 "Hg2 mi
2:00 PM104 °FHaze.14 mph48%29.39 "Hg2 mi
1:30 PM102 °FHaze.12 mph51%29.42 "Hg2 mi
1:00 PM102 °FScattered clouds.14 mph51%29.42 "Hg2 mi
12:30 PM102 °FScattered clouds.14 mph51%29.45 "Hg2 mi
12:00 PM100 °FScattered clouds.14 mph57%29.45 "Hg2 mi
Weather by CustomWeather, © 2015

See weather overviewHow to use our weather pages